[[{"header":{"parameterUnit":"m.s-1","parameterCategory":1,"la1":30.2991,"la2":30.254,"lo1":-89.0895,"lo2":-89.0444,"dy":0.0017,"dx":0.0017,"nx":28,"ny":28,"refTime":"2025-03-07T09:00:00:Z","depth":0,"parameterNumber":2,"parameterNumberName":"U-component_of_WINDS"},"data":[0,0,0,0,0,0,0,0,0,0,0,0,0,0,0,0,0,0,0,0,0,0,0,0,0,0,0,0,0,0,0,0,0,0,0,0,0,0,0,0,0,0,0,0,0,0,0,0,0,0,0,0,0,0,0,0,0,0,-1.6658,-1.6658,0,-1.6586,-1.6585,-1.6585,-1.652,-1.6519,-1.6518,-1.6517,-1.6442,-1.6441,-1.644,0,0,0,0,0,0,0,0,0,0,0,0,0,-1.6739,-1.6738,-1.6658,-1.6657,-1.6657,-1.6586,-1.6585,-1.6584,-1.652,-1.6519,-1.6518,-1.6517,-1.6443,-1.6441,-1.644,0,0,0,0,0,0,0,0,0,0,0,0,0,-1.6689,-1.6738,-1.6659,-1.6616,-1.6611,-1.6587,-1.6585,-1.6584,-1.652,-1.6519,-1.6518,-1.6517,-1.6443,-1.6441,-1.644,-1.6451,0,0,-1.6434,-1.6433,0,0,0,0,0,0,0,0,-1.6692,-1.6686,-1.6623,-1.6619,-1.6614,-1.6561,-1.6586,-1.6539,-1.652,-1.6555,-1.6517,-1.6516,-1.6483,-1.6477,-1.6466,-1.6447,-1.6444,-1.6433,-1.6432,-1.6431,-1.6431,0,0,0,0,0,0,0,-1.6696,-1.6689,-1.663,-1.6622,-1.6617,-1.66,-1.6592,-1.6577,-1.6526,-1.6552,-1.6547,-1.6539,-1.648,-1.6468,-1.6464,-1.6443,-1.6434,-1.6432,-1.6431,-1.643,-1.6428,-1.643,0,0,0,0,0,0,-1.6706,-1.6693,-1.6632,-1.6628,-1.6651,-1.66,-1.659,-1.6579,-1.6526,-1.6517,-1.654,-1.6536,-1.6472,-1.6466,-1.6461,-1.647,-1.6431,-1.643,-1.6429,-1.6427,-1.6429,-1.643,0,0,0,0,0,0,-1.6708,-1.6701,-1.6635,-1.6659,-1.6649,-1.6599,-1.6587,-1.6578,-1.6567,-1.6517,-1.6508,-1.6538,-1.6471,-1.6464,-1.6454,-1.6467,-1.6429,-1.6427,-1.6426,-1.6428,-1.6429,-1.6488,0,0,0,0,0,0,-1.6711,-1.6702,-1.6706,-1.6659,-1.6648,-1.6629,-1.6588,-1.6578,-1.6564,-1.6558,-1.6513,-1.6504,-1.647,-1.6457,-1.6452,-1.6463,-1.6426,-1.6425,-1.6427,-1.6429,-1.6485,-1.6492,-1.6498,0,0,0,0,0,-1.6714,-1.6726,-1.6707,-1.67,-1.6652,-1.663,-1.6624,-1.6584,-1.6565,-1.6568,-1.6537,-1.6505,-1.6466,-1.6456,-1.645,-1.6461,-1.6424,-1.6426,-1.6429,-1.6482,-1.6491,-1.6498,0,0,0,0,0,0,-1.6775,-1.6719,-1.6697,-1.6694,-1.6668,-1.6619,-1.6622,-1.6594,-1.6572,-1.6567,-1.6519,-1.6509,-1.6505,-1.6482,-1.6472,-1.6469,-1.6441,-1.6442,-1.6484,-1.6491,-1.6497,-1.6502,-1.6424,0,0,0,0,0,-1.6788,-1.6776,-1.6727,-1.6729,-1.6717,-1.6672,-1.6661,-1.6633,-1.6603,-1.6591,-1.6559,-1.6531,-1.6512,-1.65,-1.648,-1.6482,-1.6471,-1.6486,-1.6493,-1.6498,-1.65,-1.6498,-1.6504,-1.6438,-1.6438,-1.6438,0,0,-1.6815,-1.6783,-1.6778,-1.6741,-1.6716,-1.6704,-1.6663,-1.6651,-1.6641,-1.6589,-1.6577,-1.6553,-1.6518,-1.6514,-1.651,-1.6495,-1.6516,-1.6501,-1.6506,-1.6504,-1.6501,-1.6508,-1.6513,-1.644,-1.644,-1.6439,0,0,-1.6858,-1.6833,-1.6831,-1.6808,-1.6772,-1.6743,-1.6743,-1.6698,-1.668,-1.6668,-1.6628,-1.6616,-1.6585,-1.6561,-1.6546,-1.658,-1.655,-1.6575,-1.6608,-1.6607,-1.6612,-1.6616,-1.6628,-1.6632,-1.6577,-1.6577,-1.6577,0,-1.6896,-1.6876,-1.6834,-1.6825,-1.681,-1.6763,-1.6761,-1.674,-1.67,-1.669,-1.6674,-1.6633,-1.6607,-1.6596,-1.6604,-1.6593,-1.6591,-1.6579,-1.6615,-1.6619,-1.6622,-1.6632,-1.6637,-1.658,-1.658,-1.6579,-1.6579,0,-1.6924,-1.6911,-1.6914,-1.6876,-1.6861,-1.6856,-1.6813,-1.6803,-1.6777,-1.6749,-1.6736,-1.6703,-1.6675,-1.6671,-1.6645,-1.6656,-1.6648,-1.6624,-1.6594,-1.6632,-1.6641,-1.6645,-1.6585,-1.6584,-1.6583,-1.6582,0,0,-1.7002,-1.6942,-1.6944,-1.6926,-1.6883,-1.6872,-1.6865,-1.6838,-1.683,-1.6804,-1.6795,-1.6771,-1.6748,-1.673,-1.6701,-1.6701,-1.6729,-1.6676,-1.6675,-1.6686,-1.6739,-1.6756,-1.6761,-1.671,-1.671,-1.6711,-1.6741,0,-1.7037,-1.7021,-1.6983,-1.6979,-1.6966,-1.6921,-1.6914,-1.6887,-1.6861,-1.6846,-1.6816,-1.6799,-1.6771,-1.676,-1.6758,-1.6726,-1.6739,-1.6724,-1.6701,-1.67,-1.671,-1.6766,-1.6785,-1.6815,-1.6744,-1.6745,-1.6745,0,-1.7075,-1.7052,-1.7046,-1.7004,-1.6997,-1.6992,-1.6964,-1.6951,-1.6919,-1.69,-1.688,-1.6848,-1.6837,-1.6811,-1.6795,-1.6786,-1.6774,-1.6757,-1.6758,-1.6753,-1.6724,-1.6762,-1.6824,-1.6828,-1.6751,-1.675,-1.675,0,-1.7132,-1.71,-1.7092,-1.7078,-1.7029,-1.7026,-1.7005,-1.6973,-1.6959,-1.6935,-1.6925,-1.69,-1.6886,-1.6867,-1.6829,-1.6814,-1.6817,-1.6788,-1.68,-1.6801,-1.6802,-1.6802,-1.6862,-1.6797,-1.6797,-1.6797,-1.6796,0,-1.7174,-1.7172,-1.7116,-1.7112,-1.7108,-1.7065,-1.7062,-1.7037,-1.7009,-1.6998,-1.6958,-1.6948,-1.6899,-1.6884,-1.6854,-1.6845,-1.6839,-1.6823,-1.6815,-1.6826,-1.6828,-1.6817,-1.6813,-1.6798,-1.6797,-1.6797,-1.6797,0,-1.7237,-1.7199,-1.7188,-1.7142,-1.7131,-1.713,-1.7091,-1.7084,-1.7056,-1.7043,-1.7037,-1.6992,-1.6972,-1.6933,-1.6902,-1.6882,-1.6879,-1.6865,-1.6889,-1.6884,-1.6898,-1.6897,-1.6952,-1.6956,-1.689,-1.6891,-1.6891,0,-1.7266,-1.7263,-1.7218,-1.7208,-1.7189,-1.7173,-1.7159,-1.7117,-1.7104,-1.7067,-1.7065,-1.7042,-1.7021,-1.6991,-1.6955,-1.6931,-1.6916,-1.6937,-1.6912,-1.6923,-1.6915,-1.6915,-1.6914,-1.6942,-1.6943,-1.6944,-1.6945,0,-1.7321,-1.7303,-1.7284,-1.7259,-1.7243,-1.7221,-1.7197,-1.7191,-1.7143,-1.7131,-1.711,-1.7094,-1.7062,-1.7039,-1.701,-1.6988,-1.6958,-1.6953,-1.6954,-1.6965,-1.6979,-1.6971,-1.6903,-1.6952,-1.6951,-1.695,-1.695,-1.695,-1.7367,-1.7362,-1.7329,-1.731,-1.7287,-1.7266,-1.7257,-1.7228,-1.721,-1.7181,-1.7157,-1.7139,-1.7106,-1.7064,-1.7044,-1.7028,-1.7014,-1.7016,-1.7016,-1.7017,-1.7022,-1.6982,-1.7023,-1.7023,-1.7022,-1.7022,-1.7022,0,-1.7419,-1.7396,-1.7378,-1.7346,-1.7331,-1.7305,-1.7277,-1.7265,-1.7249,-1.7222,-1.7203,-1.7179,-1.7156,-1.7119,-1.7094,-1.7088,-1.7074,-1.7083,-1.7082,-1.7078,-1.7036,-1.7037,-1.7095,-1.7095,-1.7095,-1.7095,-1.7095,-1.7095,-1.7444,-1.7435,-1.7413,-1.7392,-1.7368,-1.735,-1.7336,-1.7316,-1.7294,-1.7269,-1.725,-1.7227,-1.7195,-1.7167,-1.7146,-1.7135,-1.7127,-1.714,-1.7126,-1.7088,-1.7081,-1.7074,-1.7075,-1.7139,-1.7139,-1.7168,-1.7168,-1.7169]},{"header":{"parameterUnit":"m.s-1","parameterCategory":1,"la1":30.2991,"la2":30.254,"lo1":-89.0895,"lo2":-89.0444,"dy":0.0017,"dx":0.0017,"nx":28,"ny":28,"refTime":"2025-03-07T09:00:00:Z","depth":0,"parameterNumber":3,"parameterNumberName":"V-component_of_WINDS"},"data":[0,0,0,0,0,0,0,0,0,0,0,0,0,0,0,0,0,0,0,0,0,0,0,0,0,0,0,0,0,0,0,0,0,0,0,0,0,0,0,0,0,0,0,0,0,0,0,0,0,0,0,0,0,0,0,0,0,0,3.3497,3.3498,0,3.3605,3.3606,3.3608,3.3624,3.3623,3.3622,3.3621,3.3731,3.3735,3.3739,0,0,0,0,0,0,0,0,0,0,0,0,0,3.3305,3.3309,3.3497,3.3498,3.35,3.3605,3.3606,3.3608,3.3624,3.3623,3.3621,3.362,3.373,3.3735,3.3739,0,0,0,0,0,0,0,0,0,0,0,0,0,3.3398,3.331,3.3497,3.352,3.3523,3.3605,3.3606,3.3608,3.3624,3.3622,3.3621,3.362,3.3728,3.3734,3.374,3.3805,0,0,3.3757,3.376,0,0,0,0,0,0,0,0,3.3393,3.3405,3.3515,3.3519,3.3522,3.3599,3.3579,3.3674,3.3624,3.3586,3.3621,3.3619,3.3689,3.3698,3.3721,3.381,3.3815,3.3758,3.3762,3.3764,3.3766,0,0,0,0,0,0,0,3.3387,3.3401,3.354,3.3517,3.3521,3.3526,3.3537,3.3597,3.3644,3.3589,3.359,3.3603,3.369,3.3715,3.3724,3.3817,3.3758,3.3763,3.3767,3.3769,3.3968,3.397,0,0,0,0,0,0,3.3376,3.3395,3.3536,3.3543,3.3453,3.353,3.3543,3.3576,3.3643,3.3652,3.3604,3.3603,3.3706,3.3717,3.3728,3.3811,3.3764,3.3769,3.3773,3.3966,3.3968,3.397,0,0,0,0,0,0,3.3372,3.3388,3.3532,3.347,3.3488,3.3535,3.3572,3.3579,3.3604,3.3655,3.3663,3.3621,3.3706,3.372,3.3786,3.3815,3.3772,3.3777,3.3964,3.3967,3.3969,3.3976,0,0,0,0,0,0,3.3366,3.3387,3.3411,3.347,3.3491,3.3588,3.3574,3.3582,3.3614,3.3614,3.3673,3.3682,3.3705,3.3778,3.3792,3.3822,3.3782,3.3962,3.3965,3.3968,3.3973,3.3978,3.3983,0,0,0,0,0,3.3359,3.3408,3.3413,3.3429,3.3523,3.359,3.3602,3.3629,3.3616,3.3642,3.3675,3.368,3.3809,3.3784,3.3801,3.3833,3.396,3.3964,3.3968,3.3971,3.3977,3.3983,0,0,0,0,0,0,3.3351,3.3416,3.3422,3.3491,3.3535,3.3592,3.3626,3.3634,3.3682,3.368,3.371,3.3724,3.379,3.3818,3.3789,3.3901,3.3884,3.3891,3.388,3.3887,3.3891,3.3884,3.3787,0,0,0,0,0,3.3357,3.3406,3.346,3.3516,3.3538,3.3578,3.3608,3.3625,3.3671,3.369,3.3727,3.3772,3.3824,3.3856,3.3906,3.3977,3.3992,3.4007,3.4012,3.4016,3.4022,3.4065,3.4073,3.3984,3.3984,3.3983,0,0,3.3371,3.3413,3.3441,3.3516,3.3552,3.3602,3.3593,3.3646,3.3684,3.3698,3.3764,3.3793,3.3845,3.3916,3.3948,3.3941,3.405,3.4021,3.4024,3.4028,3.407,3.4078,3.4086,3.3986,3.3986,3.3985,0,0,3.3422,3.3457,3.3509,3.3546,3.36,3.3627,3.364,3.3697,3.3717,3.3784,3.3796,3.3841,3.3928,3.3966,3.3996,3.4063,3.407,3.4078,3.4104,3.4145,3.4152,3.4158,3.4185,3.4194,3.4085,3.4085,3.4085,0,3.3432,3.3507,3.3535,3.3588,3.3621,3.3637,3.369,3.3724,3.3792,3.3815,3.3806,3.3917,3.3953,3.4034,3.405,3.4074,3.409,3.4072,3.4149,3.4155,3.4162,3.4187,3.4197,3.4085,3.4085,3.4085,3.4085,0,3.3518,3.3571,3.3606,3.3673,3.371,3.3763,3.3799,3.3834,3.3848,3.3875,3.3945,3.3989,3.4049,3.4069,3.4082,3.4152,3.4146,3.4142,3.4126,3.4171,3.4196,3.4205,3.4087,3.4086,3.4086,3.4086,0,0,3.3566,3.3649,3.3661,3.3693,3.3755,3.3797,3.3851,3.3911,3.3941,3.3987,3.4035,3.4109,3.4107,3.4141,3.4159,3.4195,3.4249,3.4187,3.4189,3.4199,3.4331,3.4335,3.4346,3.4253,3.4255,3.4257,3.4328,0,3.3626,3.3724,3.3751,3.3834,3.3885,3.3901,3.3948,3.3992,3.402,3.4067,3.4098,3.4151,3.4143,3.4164,3.42,3.4235,3.4276,3.423,3.4299,3.4302,3.4288,3.4358,3.4362,3.4427,3.4337,3.4339,3.434,0,3.3709,3.3758,3.3847,3.3905,3.3927,3.397,3.4028,3.4072,3.4123,3.4141,3.4181,3.4196,3.4255,3.4234,3.4317,3.4285,3.4315,3.4336,3.4339,3.4348,3.4325,3.4371,3.4448,3.4458,3.4355,3.4354,3.4353,0,3.3738,3.3827,3.3892,3.3918,3.3987,3.4017,3.4047,3.4097,3.4131,3.4182,3.4205,3.4261,3.4293,3.4336,3.4367,3.4349,3.4448,3.4429,3.4466,3.4465,3.4487,3.4486,3.4572,3.4503,3.4503,3.4503,3.4503,0,3.3803,3.3857,3.3907,3.3947,3.4008,3.4039,3.41,3.413,3.4175,3.4222,3.4238,3.4283,3.432,3.4369,3.4393,3.446,3.4473,3.449,3.4496,3.449,3.4488,3.4511,3.4508,3.4505,3.4505,3.4504,3.4504,0,3.3846,3.3881,3.3954,3.4014,3.403,3.4073,3.4125,3.4166,3.4194,3.4254,3.427,3.4316,3.4375,3.441,3.4484,3.4501,3.4575,3.4578,3.4558,3.4561,3.4597,3.4594,3.4702,3.4719,3.4637,3.4638,3.4638,0,3.3886,3.3928,3.3994,3.4027,3.4058,3.411,3.4147,3.4179,3.4216,3.4278,3.4312,3.4372,3.4422,3.4517,3.4557,3.4615,3.4621,3.4655,3.4629,3.4622,3.4624,3.4622,3.4628,3.4659,3.466,3.4661,3.4661,0,3.3954,3.397,3.4021,3.408,3.4123,3.417,3.4217,3.4243,3.4283,3.4324,3.4386,3.4425,3.4502,3.4563,3.4624,3.4656,3.4666,3.4669,3.4681,3.4676,3.4664,3.4673,3.4572,3.4666,3.4666,3.4666,3.4665,3.4665,3.3999,3.4038,3.4091,3.4148,3.4187,3.4231,3.4273,3.4308,3.436,3.4426,3.4441,3.4506,3.4558,3.4642,3.4676,3.4728,3.4722,3.4739,3.4743,3.4748,3.475,3.4654,3.4739,3.4738,3.4738,3.4738,3.4738,0,3.407,3.4105,3.4157,3.4224,3.4269,3.4275,3.4328,3.4366,3.4423,3.447,3.452,3.4592,3.4651,3.4697,3.4758,3.4791,3.4798,3.4806,3.4805,3.4813,3.475,3.4735,3.48,3.48,3.48,3.48,3.48,3.48,3.4112,3.418,3.4203,3.4291,3.4326,3.439,3.442,3.4462,3.45,3.458,3.4629,3.4659,3.4706,3.4771,3.4827,3.4838,3.4861,3.487,3.4883,3.4824,3.4817,3.4811,3.4797,3.4874,3.4874,3.4941,3.4942,3.4942]}]]